Location: Gleizolles
(44.4833°N, 6.7667°E)
Time: 22:03:21
(UTC+00:00)

PCSat - Pass Details

Date: 13 December 2022
Orbit: 785 x 793 km, 67.1° (Epoch: 04 February)

Event Time Altitude Azimuth Distance (km) Brightness Sun altitude
Rises 18:21:58 0° 259° (WSW) 3,276 14.1 -25.5°
Reaches altitude 10° 18:25:05 10° 277° (W) 2,353 13.0 -26.1°
Maximum altitude 18:28:52 19° 322° (NW) 1,812 11.7 -26.7°
Enters shadow 18:31:38 14° 357° (N) 2,122 11.7 -27.2°
